Regional Weather Roundup
Issued by NWS Sioux Falls, SD

Home | Current Version | Previous Version | Graphics & Text | Print | Product List | Glossary On
Versions: 1 2 3 4 5 6 7 8 9 10 11 12 13 14 15 16 17 18 19 20 21 22 23 24 25 26 27 28 29 30 31 32 33 34 35 36 37 38 39 40 41 42 43 44 45 46 47 48 49 50
000
ASUS43 KFSD 251702
RWRFSD

WEATHER ROUNDUP FOR SE SOUTH DAKOTA/SW MINNESOTA/NW IOWA
NATIONAL WEATHER SERVICE SIOUX FALLS SD
1200 PM CDT SAT MAR 25 2017

NOTE: "FAIR" INDICATES FEW OR NO CLOUDS BELOW 12,000 FEET WITH NO
SIGNIFICANT WEATHER AND OR OBSTRUCTIONS TO VISIBILITY.


SDZ038>040-050-052>070-251800-
SOUTHEAST SOUTH DAKOTA

CITY           SKY/WX    TMP DP  RH WIND       PRES   REMARKS
BROOKINGS      CLOUDY    35  32  88 E8        30.09F WCI  29
CHAMBERLAIN    CLOUDY    39  34  82 SE8       30.07F
HURON          CLOUDY    36  32  85 E5        30.11F
MADISON        CLOUDY    36  36 100 NE12      30.09S
MITCHELL       CLOUDY    36  34  92 E7        30.11F
SIOUX FALLS    CLOUDY    41  36  82 NE16      30.08F
WINNER         FAIR      44  35  70 VRB7      30.04F
YANKTON        CLOUDY    37  34  87 NE10      30.08F
$$

MNZ071-072-080-081-089-090-097-098-251800-
SOUTHWEST MINNESOTA

CITY           SKY/WX    TMP DP  RH WIND       PRES   REMARKS
FAIRMONT       CLOUDY    38  35  89 NE15      30.09R
JACKSON        CLOUDY    37  34  87 NE16      30.08S
LUVERNE        CLOUDY    37  34  87 E10G17    30.09S
MARSHALL       CLOUDY    38  35  89 E13       30.12F
MONTEVIDEO     CLOUDY    37  34  87 SE10      30.18S
PIPESTONE      CLOUDY    37  34  87 E12G20    30.06F
REDWOOD FALLS  CLOUDY    39  34  82 NE12G20   30.12F
TRACY          CLOUDY    38  37  99 NE15      30.11F FOG
WINDOM         CLOUDY    37  36  93 NE14      30.09S
WORTHINGTON    CLOUDY    36  35  96 NE15      30.08S FOG
$$

IAZ001>003-012>014-020>022-031-032-NEZ013-014-SDZ071-251800-
NORTHWEST IOWA

CITY           SKY/WX    TMP DP  RH WIND       PRES   REMARKS
CHEROKEE       CLOUDY    38  37  97 NE10      30.04F FOG
ESTHERVILLE    CLOUDY    37  36  96 NE18      30.06S
LE MARS        CLOUDY    39  37  93 NE13      30.06F
ORANGE CITY    CLOUDY    37  37 100 NE9G18    30.05S FOG
SHELDON        CLOUDY    39  39 100 NE20      30.05S
SIOUX CITY     CLOUDY    39  37  92 NE13G21   30.04F
SPENCER        CLOUDY    38  35  89 NE15      30.06S
STORM LAKE     MIX PCPN  37  37 100 NE22      30.02S VSB 3/4
$$

ABBREVIATIONS USED IN REMARKS
   TC - TEMPERATURE IN CELSIUS
  WCI - WIND CHILL INDEX
   HX - HEAT INDEX
  VSB - VISIBILITY




USA.gov is the U.S. government's official web portal to all federal, state and local government web resources and services.